STARLINK-31587, 59570

Orbit data source: Space-Track

STARLINK-31587, 59570 is a payload satellite owned by SpaceX/Seattle (US) in LEO that was launched on Tue, 23 Apr 2024 UTC via an FALCON 9 launch vehicle from the Air Force Eastern Test Range (AFETR). Payload-class satellites include a variety of spacecraft equipped with specific instruments for various scientific and technological missions. These include communications satellites like Starlink; space stations such as the ISS; scientific satellites like the Hubble; Earth observation satellites from companies like Planet Labs, Umbra, and HawkEye 360; GPS; miniature CubeSats for education and research; and military/defense satellites.

Loading next visibility...
Identifier
59570, 2024-076G
Orbit
LEO
Last TLE update
6 hours ago
Origin
Manufacturer
SpaceX/Seattle
Mission
Operational spacecraft
Bus & Motor
STARLINK V2M, Unknown motor
Mass
730 kg wet, ~700 kg dry
Launch date (UTC)
2024-04-23 (1 year ago)
Launch vehicle
FALCON 9
Launch site
Air Force Eastern Test Range (AFETR)
Object type
Payload
Rocket body
Debris
Shape & HBR
Unknown
Radar Cross Section
Large (>1 m²)

Expand to show TLE details & history

TLE from 6 hours ago
0 STARLINK-31587
1 59570U 24076G   25182.16688316  .00000719  00000-0  35634-4 0  9994
2 59570  43.0026 349.6298 0001140 284.8943  75.1783 15.27582773 68033
Epoch: 2025-07-01T04:00Z
TLE epoch observation values (Epoch: 2025-07-01T04:00:18.705Z)
Latitude
0.00004°
Longitude
10.08568°
Altitude
482.617 km
Speed
7.626 km/s
True Right ascension
23h 18m 31s
True Declination
0° 00' 00"
Sunlit
Object was in daylight at epoch
Visualization orbit readout
Latitude
-18.94639°
Longitude
-149.76349°
Altitude
486.974 km
Speed
7.623 km/s
Apparent Right ascension
11h 12m 35s
Apparent Declination
-31° 22' 13"
Sunlit
Object is in daylight
Visualization observer readout
Local Sidereal Time
21:15:31
Azimuth
280.675° WNW
Elevation
-64.866°
Doppler factor
1
Orbital elements
Apogee altitude
485.768 km
Perigee altitude
484.203 km
Semi-major axis
6,863.123 km
Eccentricity
0.00011
Inclination
43.0026°
RAAN
349.6298°
Arg. of periapsis
284.8943°
True anomaly
Unknown
Mean anomaly
75.1783°
Eccentric anomaly
Unknown
Mean motion
3.81734 °/min
Orbital period
94.31 mins
BSTAR
0.000035634
Loading maneuver chart data...
Loading SW <> Apogee altitude chart data...
Loading historical data...
Loading historical data...
Loading historical data...
Loading historical data...
Loading historical data...
Loading historical data...
Loading historical data...

STARLINK-31587 Visibility forecast

Observer location: undefined°, undefined°

Span
Click to sort rows by Start time (UTC) header in descending order
Start Az.
Max El. time (UTC)
Max El. Az.
Max El.
End time (UTC)
End Az.
5 mins2025-07-01 15:14:12.882Z235.003° WSW2025-07-01 15:16:12.882Z184.646° SSW42.022°2025-07-01 15:19:12.882Z76.983° E
5 mins2025-07-01 16:53:12.882Z282.919° WNW2025-07-01 16:55:12.882Z334.308° NNW38.327°2025-07-01 16:58:12.882Z68.745° E
6 mins2025-07-01 18:32:12.882Z292.95° NW2025-07-01 18:34:12.882Z326.666° NNW40.112°2025-07-01 18:38:12.882Z95.188° ESE
5 mins2025-07-01 20:11:12.882Z269.895° W2025-07-01 20:13:12.882Z224.311° SW31.429°2025-07-01 20:16:12.882Z145.438° SSE
|